Stündliche Wetter Caucaia

Heute, 28 Januar, Donnerstag

Zeit Temperatur Niederschläge Wind Luftdruck Luftfeuchtigkeit
00:00 +27°C° 0 mm 3 m/S 755 mmHg 84%
01:00 +27°C° 0 mm 3 m/S 754 mmHg 85%
02:00 +27°C° 0 mm 3 m/S 754 mmHg 86%
03:00 +27°C° 0 mm 3 m/S 754 mmHg 86%
04:00 +27°C° 0.1 mm 4 m/S 754 mmHg 87%
05:00 +27°C° 0.1 mm 4 m/S 754 mmHg 87%
06:00 +27°C° 0.1 mm 4 m/S 755 mmHg 87%
07:00 +28°C° 0.3 mm 4 m/S 755 mmHg 80%
08:00 +29°C° 0.3 mm 5 m/S 756 mmHg 73%
09:00 +32°C° 0.3 mm 5 m/S 756 mmHg 66%
10:00 +33°C° 0 mm 5 m/S 756 mmHg 61%
11:00 +34°C° 0 mm 5 m/S 755 mmHg 56%
12:00 +35°C° 0 mm 6 m/S 755 mmHg 51%
13:00 +34°C° 0 mm 6 m/S 754 mmHg 52%
14:00 +34°C° 0 mm 5 m/S 754 mmHg 54%
15:00 +34°C° 0 mm 5 m/S 753 mmHg 55%
16:00 +33°C° 0 mm 5 m/S 753 mmHg 60%
17:00 +30°C° 0 mm 4 m/S 753 mmHg 65%
18:00 +29°C° 0 mm 4 m/S 754 mmHg 70%
19:00 +29°C° 0.1 mm 4 m/S 754 mmHg 73%
20:00 +28°C° 0.1 mm 4 m/S 755 mmHg 76%
21:00 +28°C° 0.1 mm 4 m/S 755 mmHg 80%
22:00 +28°C° 0.5 mm 4 m/S 755 mmHg 81%
23:00 +28°C° 0.5 mm 4 m/S 755 mmHg 81%

Morgen, 29 Januar, Freitag

Zeit Temperatur Niederschläge Wind Luftdruck Luftfeuchtigkeit
00:00 +27°C° 0.5 mm 4 m/S 755 mmHg 82%
01:00 +27°C° 0.6 mm 4 m/S 755 mmHg 83%
02:00 +27°C° 0.6 mm 3 m/S 755 mmHg 83%
03:00 +27°C° 0.6 mm 3 m/S 754 mmHg 84%
04:00 +27°C° 0.4 mm 3 m/S 754 mmHg 85%
05:00 +27°C° 0.4 mm 3 m/S 755 mmHg 85%
06:00 +27°C° 0.4 mm 3 m/S 755 mmHg 86%
07:00 +28°C° 0.6 mm 3 m/S 755 mmHg 79%
08:00 +29°C° 0.6 mm 4 m/S 756 mmHg 73%
09:00 +30°C° 0.6 mm 4 m/S 756 mmHg 67%
10:00 +32°C° 0.6 mm 4 m/S 756 mmHg 65%
11:00 +33°C° 0.6 mm 5 m/S 756 mmHg 63%
12:00 +33°C° 0.6 mm 5 m/S 756 mmHg 60%
13:00 +33°C° 0.4 mm 5 m/S 755 mmHg 60%
14:00 +33°C° 0.4 mm 5 m/S 755 mmHg 60%
15:00 +33°C° 0.4 mm 5 m/S 754 mmHg 60%
16:00 +32°C° 0 mm 5 m/S 754 mmHg 65%
17:00 +30°C° 0 mm 4 m/S 754 mmHg 69%
18:00 +29°C° 0 mm 4 m/S 755 mmHg 74%
19:00 +29°C° 0 mm 4 m/S 755 mmHg 76%
20:00 +28°C° 0 mm 4 m/S 755 mmHg 79%
21:00 +28°C° 0 mm 4 m/S 756 mmHg 81%
22:00 +28°C° 0 mm 4 m/S 756 mmHg 81%
23:00 +28°C° 0 mm 4 m/S 756 mmHg 80%

übermorgen, 30 Januar, Samstag

Zeit Temperatur Niederschläge Wind Luftdruck Luftfeuchtigkeit
00:00 +28°C° 0 mm 4 m/S 756 mmHg 80%
01:00 +28°C° 0.1 mm 4 m/S 755 mmHg 81%
02:00 +28°C° 0.1 mm 4 m/S 755 mmHg 82%
03:00 +27°C° 0.1 mm 4 m/S 755 mmHg 83%
04:00 +27°C° 0.3 mm 4 m/S 755 mmHg 83%
05:00 +27°C° 0.3 mm 4 m/S 755 mmHg 84%
06:00 +27°C° 0.3 mm 4 m/S 755 mmHg 85%
07:00 +28°C° 0.4 mm 4 m/S 756 mmHg 80%
08:00 +29°C° 0.4 mm 5 m/S 756 mmHg 75%
09:00 +30°C° 0.4 mm 5 m/S 757 mmHg 71%
10:00 +32°C° 0.4 mm 5 m/S 756 mmHg 67%
11:00 +33°C° 0.4 mm 5 m/S 756 mmHg 64%
12:00 +33°C° 0.4 mm 6 m/S 756 mmHg 61%
13:00 +33°C° 0.1 mm 6 m/S 756 mmHg 60%
14:00 +33°C° 0.1 mm 6 m/S 755 mmHg 59%
15:00 +33°C° 0.1 mm 6 m/S 754 mmHg 58%
16:00 +32°C° 0 mm 5 m/S 754 mmHg 64%
17:00 +30°C° 0 mm 5 m/S 754 mmHg 69%
18:00 +29°C° 0 mm 4 m/S 754 mmHg 75%
19:00 +28°C° 0 mm 4 m/S 755 mmHg 78%
20:00 +28°C° 0 mm 4 m/S 755 mmHg 80%
21:00 +28°C° 0 mm 4 m/S 756 mmHg 82%
22:00 +27°C° 0.2 mm 4 m/S 756 mmHg 83%
23:00 +27°C° 0.2 mm 4 m/S 756 mmHg 83%

31 Januar, Sonntag

Zeit Temperatur Niederschläge Wind Luftdruck Luftfeuchtigkeit
00:00 +27°C° 0.2 mm 4 m/S 756 mmHg 83%
01:00 +27°C° 0.3 mm 4 m/S 755 mmHg 85%
02:00 +27°C° 0.3 mm 4 m/S 755 mmHg 86%
03:00 +27°C° 0.3 mm 4 m/S 754 mmHg 87%
04:00 +27°C° 0.3 mm 4 m/S 755 mmHg 87%
05:00 +27°C° 0.3 mm 4 m/S 755 mmHg 86%
06:00 +27°C° 0.3 mm 4 m/S 755 mmHg 86%
07:00 +28°C° 0.6 mm 4 m/S 756 mmHg 81%
08:00 +29°C° 0.6 mm 4 m/S 756 mmHg 77%
09:00 +30°C° 0.6 mm 5 m/S 756 mmHg 72%
10:00 +30°C° 1 mm 5 m/S 756 mmHg 70%
11:00 +32°C° 1 mm 5 m/S 756 mmHg 68%
12:00 +32°C° 1 mm 5 m/S 755 mmHg 66%
13:00 +33°C° 0.6 mm 5 m/S 755 mmHg 63%
14:00 +33°C° 0.6 mm 5 m/S 754 mmHg 59%
15:00 +34°C° 0.6 mm 5 m/S 754 mmHg 56%
16:00 +32°C° 0.2 mm 4 m/S 754 mmHg 61%
17:00 +30°C° 0.2 mm 4 m/S 754 mmHg 66%
18:00 +29°C° 0.2 mm 4 m/S 754 mmHg 70%
19:00 +29°C° 0 mm 4 m/S 754 mmHg 73%
20:00 +29°C° 0 mm 4 m/S 755 mmHg 75%
21:00 +28°C° 0 mm 4 m/S 755 mmHg 77%
22:00 +28°C° 0.2 mm 4 m/S 755 mmHg 80%
23:00 +28°C° 0.2 mm 4 m/S 755 mmHg 82%

1 Februar, Montag

Zeit Temperatur Niederschläge Wind Luftdruck Luftfeuchtigkeit
00:00 +27°C° 0.2 mm 4 m/S 755 mmHg 84%
01:00 +27°C° 0.4 mm 4 m/S 755 mmHg 85%
02:00 +27°C° 0.4 mm 4 m/S 754 mmHg 86%
03:00 +27°C° 0.4 mm 4 m/S 754 mmHg 87%
04:00 +27°C° 0.2 mm 4 m/S 754 mmHg 87%
05:00 +27°C° 0.2 mm 3 m/S 754 mmHg 87%
06:00 +27°C° 0.2 mm 3 m/S 755 mmHg 86%
07:00 +28°C° 0.2 mm 4 m/S 755 mmHg 79%
08:00 +30°C° 0.2 mm 4 m/S 756 mmHg 72%
09:00 +32°C° 0.2 mm 5 m/S 756 mmHg 65%
10:00 +33°C° 0.2 mm 5 m/S 756 mmHg 64%
11:00 +33°C° 0.2 mm 5 m/S 756 mmHg 62%
12:00 +34°C° 0.2 mm 5 m/S 755 mmHg 60%
13:00 +33°C° 0.2 mm 5 m/S 755 mmHg 61%
14:00 +33°C° 0.2 mm 5 m/S 754 mmHg 62%
15:00 +33°C° 0.2 mm 5 m/S 753 mmHg 63%
16:00 +32°C° 0 mm 5 m/S 754 mmHg 67%
17:00 +30°C° 0 mm 5 m/S 754 mmHg 71%
18:00 +29°C° 0 mm 4 m/S 754 mmHg 74%
19:00 +29°C° 0 mm 4 m/S 755 mmHg 77%
20:00 +28°C° 0 mm 4 m/S 755 mmHg 79%
21:00 +28°C° 0 mm 5 m/S 756 mmHg 82%
22:00 +28°C° 0 mm 4 m/S 756 mmHg 82%
23:00 +28°C° 0 mm 4 m/S 756 mmHg 83%

2 Februar, Dienstag

Zeit Temperatur Niederschläge Wind Luftdruck Luftfeuchtigkeit
00:00 +27°C° 0 mm 4 m/S 755 mmHg 83%
01:00 +27°C° 0 mm 4 m/S 755 mmHg 83%
02:00 +27°C° 0 mm 4 m/S 755 mmHg 83%
03:00 +27°C° 0 mm 4 m/S 754 mmHg 82%
04:00 +27°C° 0 mm 4 m/S 755 mmHg 82%
05:00 +27°C° 0 mm 4 m/S 755 mmHg 82%
06:00 +27°C° 0 mm 4 m/S 755 mmHg 82%
07:00 +28°C° 0.1 mm 5 m/S 756 mmHg 77%
08:00 +30°C° 0.1 mm 5 m/S 756 mmHg 72%
09:00 +32°C° 0.1 mm 6 m/S 757 mmHg 66%
10:00 +33°C° 0.1 mm 6 m/S 756 mmHg 61%
11:00 +34°C° 0.1 mm 6 m/S 756 mmHg 56%
12:00 +34°C° 0.1 mm 6 m/S 756 mmHg 51%
13:00 +34°C° 0 mm 6 m/S 755 mmHg 54%
14:00 +34°C° 0 mm 6 m/S 755 mmHg 56%
15:00 +33°C° 0 mm 6 m/S 754 mmHg 58%
16:00 +32°C° 0.4 mm 5 m/S 754 mmHg 63%
17:00 +30°C° 0.4 mm 5 m/S 755 mmHg 69%
18:00 +29°C° 0.4 mm 5 m/S 755 mmHg 74%
19:00 +28°C° 0.1 mm 5 m/S 755 mmHg 77%
20:00 +28°C° 0.1 mm 4 m/S 756 mmHg 80%
21:00 +27°C° 0.1 mm 4 m/S 756 mmHg 83%
22:00 +27°C° 0.1 mm 4 m/S 756 mmHg 83%
23:00 +27°C° 0.1 mm 4 m/S 756 mmHg 83%
Mehr zeigen

Wir brauchen deine Erlaubnis

Meteoprog und unser Service Anbieter werden persönliche Daten aufbewahren, so wie Cookies, Geräte Bezeichnung oder ähnliche Technologien von deinem Gerät und Prozess, so wie Persönliche Daten Inhalte und Werbungen, genauso wie social Media und den Verkehr zu analysieren.

  • Aufbewahrung und/oder Zugang zu deiner Geräte Informationen.

    Cookies, Geräte Bezeichnung oder andere Informationen, können aufbewahrt oder Zugang zu deinem Gerät erhalten, für den Grund, der oben angegeben wird.

  • Personalisierte Werbung und Inhalte, Messungen, Einblick in das Publikum und Produkt Entwicklung.

    Werbungen und Inhalte können personalisiert werden, basierend auf ein Profil. Mehr Daten können besser personalisierte Werbungen und Inhalte hinzufügen. Werbung und Inhalte können gezeigt und gemessen werden. Einblicke über das Publikum, welche die Werbung gesehen haben und den Inhalt, können abgeleitet werden. So wie Daten können genutzt werden, um es zu verbessern oder die Benutzer Erfahrung zu verbessern das System und die Software.

Wenn du “Ich stimme zu” klickst, erlaubst du uns, die Cookies zu benutzen die Geräte Bezeichnung, den Web oder ähnliche Technologien zu benutzen. Deine Settings, können in deinem Gerät bei deinem Browser geändert werden.

Für den bestimmten Zweck, berechtigten Interessen beruhen darauf, mehr als auf den Inhalt. Du kannst mehr darüber in unseren Privaten und Cookie Politik lesen.